Temp
62 62 62 62 61 61 61 61 61 61 61 61 61 61 61 61 61 61 61 61 61 61 62 62 63 64 60 64 76 84 82 82 81 81 81 80 75 75 70 73 76 73 75 81 80 79 78
62 62 62 62 61 61 61 61 61 61 61 61 61 60 60 60 60 61 61 60 60 60 61 62 64 64 59 64 83 81 81 81 80 80 81 81 78 80 75 74 71 77 78 78 79 78 78
61 61 61 61 61 60 60 60 61 60 60 60 60 60 60 60 60 60 60 59 59 60 61 63 64 65 60 72 81 81 81 76 78 79 80 84 84 80 75 71 79 75 73 76 75 75 73
61 61 61 61 61 60 60 60 60 60 60 59 60 60 60 60 59 59 59 58 58 60 62 64 65 59 64 78 78 79 77 78 81 81 81 86 86 79 73 75 73 68 66 61 73 75 74
61 61 61 61 60 60 60 60 60 59 59 59 59 59 59 59 59 58 57 57 59 64 66 66 57 56 66 79 76 80 81 81 78 78 80 94 81 73 72 66 61 63 57 62 67 75 73
61 61 60 60 60 60 59 59 59 59 59 59 58 58 58 58 58 57 56 57 60 62 66 68 72 59 70 74 78 80 79 84 80 79 79 78 70 65 62 60 56 58 60 63 62 71 72
61 60 60 60 60 59 59 59 59 59 59 59 58 58 58 57 57 56 53 59 62 60 59 62 59 65 71 78 79 78 82 84 80 77 68 71 67 62 67 67 68 68 64 62 67 73 69
61 60 60 60 60 59 59 59 59 59 58 58 58 58 57 57 56 55 51 60 59 58 53 66 67 68 72 73 71 78 84 78 75 69 70 67 63 70 73 74 71 67 62 62 69 74 71
60 60 60 59 59 59 59 59 58 58 58 58 58 57 57 56 55 53 51 59 61 57 50 63 66 67 71 75 70 73 80 78 72 68 69 65 70 75 74 70 69 63 62 64 65 70 70
60 59 59 59 59 59 59 58 58 58 57 57 57 57 56 54 55 48 56 57 58 57 49 59 60 71 72 73 69 80 81 80 71 71 69 67 74 75 70 69 66 58 71 72 68 62 53
60 59 59 59 59 59 58 58 58 57 57 57 57 57 55 54 46 48 59 53 57 57 41 64 62 77 67 71 71 76 80 79 72 72 71 70 69 69 67 70 72 66 72 67 65 57 56
60 60 59 59 59 59 58 57 57 57 57 57 57 56 55 50 44 50 53 54 59 51 43 61 66 64 62 63 68 73 76 77 78 72 69 73 77 74 71 73 74 73 66 64 60 57 48
60 60 59 59 59 58 57 57 57 57 57 56 55 54 53 54 51 51 52 59 50 42 60 59 55 59 57 61 65 67 69 66 66 60 58 66 69 72 74 68 71 66 59 48 48 48 47
59 59 59 58 58 58 58 57 57 57 56 55 53 52 50 52 48 51 55 56 39 53 51 58 57 55 59 60 62 63 65 63 63 66 58 60 59 69 74 68 64 61 57 51 45 42 48
59 59 59 58 58 58 58 57 57 56 55 54 52 44 45 48 51 50 55 44 47 50 57 57 56 51 54 57 62 61 60 63 68 68 62 57 60 71 73 71 71 63 57 58 48 44 48
59 59 59 58 58 58 58 57 57 56 55 54 45 45 47 52 51 52 50 44 48 55 59 56 48 51 45 52 54 58 59 65 68 72 69 65 58 66 71 75 71 66 67 55 51 47 44
59 59 59 59 58 58 58 58 57 55 54 52 43 47 54 51 51 52 43 44 51 58 61 55 51 50 49 50 51 51 59 65 71 70 71 63 61 63 69 65 62 62 58 55 55 52 48
59 59 59 58 58 58 58 57 56 54 53 49 39 46 54 54 47 37 41 48 55 54 59 56 56 55 54 55 51 52 57 64 71 71 69 66 62 57 64 67 71 66 65 58 56 51 47
58 59 59 58 58 58 58 57 55 54 53 47 38 37 52 55 41 39 43 51 55 54 55 55 55 58 57 52 49 54 59 69 71 70 67 68 58 52 58 62 64 64 63 58 55 53 50
59 59 59 59 58 58 58 57 55 54 53 45 39 39 47 48 44 42 42 48 50 60 59 60 58 56 54 51 53 54 58 67 70 68 72 72 56 59 55 60 63 62 66 63 59 57 52
59 58 58 58 59 59 58 57 56 55 53 48 41 39 48 45 44 43 44 48 52 52 58 60 55 58 55 48 49 52 58 61 68 69 65 68 60 59 64 68 67 67 71 68 64 61 62
58 58 58 58 58 58 58 58 57 55 52 43 39 41 42 40 44 43 45 47 52 53 56 53 55 60 58 51 53 51 55 56 59 63 58 61 60 57 62 66 68 67 70 69 68 64 65
58 58 58 58 58 58 58 58 57 55 51 41 41 48 45 42 42 47 45 50 53 56 58 62 62 58 54 58 63 65 63 60 62 56 58 55 59 55 55 62 63 59 68 68 67 67 68
57 57 58 58 58 58 59 58 58 57 54 48 47 45 41 40 42 46 53 53 53 55 53 59 61 54 61 63 66 59 57 59 63 63 62 56 55 56 54 55 49 66 73 78 76 72 71
57 57 57 58 58 58 58 59 59 57 55 50 49 45 40 39 46 46 51 53 53 52 52 56 61 63 61 58 52 49 50 52 59 63 59 65 55 52 55 51 59 67 69 71 71 69 74
57 57 57 58 58 58 59 59 59 57 56 51 50 50 44 40 41 50 48 49 44 47 49 56 60 59 58 54 50 46 48 54 54 54 55 56 62 60 49 53 56 65 75 77 76 64 72
57 57 57 57 58 58 59 59 59 58 55 50 49 50 45 39 47 49 46 45 51 49 44 49 53 52 55 48 48 48 52 59 52 55 54 52 51 60 50 55 60 70 76 79 64 66 74
56 56 57 57 57 57 58 59 58 58 57 52 49 51 47 42 46 51 54 49 48 46 43 48 48 51 48 45 49 52 51 55 54 56 57 54 53 52 51 53 58 73 74 72 73 71 78
56 56 56 57 57 57 58 58 58 58 58 55 47 54 53 45 43 50 53 58 56 57 50 50 49 47 50 48 48 50 52 51 51 53 53 59 62 58 65 61 68 78 77 78 76 79 79
MSLP
1020.64 1020.35 1020.07 1019.80 1019.54 1019.25 1018.94 1018.62 1018.25 1017.87 1017.47 1017.06 1016.64 1016.23 1015.68 1015.17 1014.61 1014.06 1013.38 1012.65 1011.92 1011.28 1011.07 1010.55 1009.85 1009.49 1008.83 1007.91 1005.16 1003.14 1003.30 1003.66 1004.70 1005.08 1005.20 1005.44 1005.49 1005.76 1006.34 1006.64 1006.79 1006.78 1006.76 1006.57 1006.92 1007.53 1008.15
1020.77 1020.47 1020.12 1019.88 1019.54 1019.26 1019.02 1018.67 1018.30 1017.91 1017.56 1017.16 1016.64 1016.12 1015.58 1014.98 1014.36 1013.72 1013.07 1012.38 1011.65 1010.91 1010.70 1010.28 1009.78 1009.59 1009.14 1007.02 1003.93 1003.45 1003.79 1004.10 1004.41 1005.04 1005.27 1005.19 1005.33 1005.68 1006.40 1006.90 1007.02 1007.04 1006.82 1007.19 1007.52 1008.08 1008.69
1020.85 1020.57 1020.22 1019.94 1019.63 1019.34 1019.07 1018.73 1018.36 1017.95 1017.55 1017.12 1016.60 1016.07 1015.37 1014.69 1014.08 1013.43 1012.67 1011.87 1011.26 1010.46 1010.16 1009.84 1009.58 1009.51 1008.56 1005.45 1003.88 1003.78 1004.14 1004.39 1004.41 1004.41 1005.15 1005.01 1004.99 1005.55 1006.42 1007.24 1007.28 1007.50 1007.75 1008.07 1008.57 1008.68 1009.24
1020.85 1020.57 1020.25 1019.92 1019.63 1019.36 1019.05 1018.69 1018.32 1017.89 1017.46 1017.00 1016.43 1015.83 1015.22 1014.44 1013.67 1012.95 1012.10 1011.25 1010.68 1009.87 1009.34 1009.16 1009.27 1009.24 1007.29 1004.58 1004.36 1004.23 1004.35 1004.46 1004.49 1004.67 1005.12 1005.01 1004.90 1005.81 1006.73 1007.37 1008.09 1008.51 1008.78 1009.18 1009.30 1009.02 1009.75
1020.91 1020.53 1020.28 1020.03 1019.74 1019.38 1019.03 1018.66 1018.28 1017.86 1017.42 1016.92 1016.33 1015.67 1014.98 1014.22 1013.37 1012.47 1011.48 1010.54 1009.80 1009.26 1008.98 1008.98 1009.18 1008.77 1006.40 1004.50 1004.69 1003.66 1004.00 1004.08 1004.46 1004.96 1005.24 1005.08 1005.37 1006.48 1007.33 1008.27 1009.15 1009.60 1009.64 1009.62 1009.61 1009.33 1009.57
1021.03 1020.71 1020.41 1020.10 1019.78 1019.41 1019.03 1018.61 1018.19 1017.78 1017.29 1016.79 1016.23 1015.48 1014.74 1013.90 1013.04 1012.11 1011.04 1009.59 1009.36 1009.32 1009.12 1009.14 1008.84 1008.52 1005.73 1004.64 1003.78 1003.50 1003.71 1003.99 1004.43 1004.92 1005.53 1005.60 1006.37 1006.99 1007.91 1008.59 1009.02 1009.51 1009.81 1009.86 1009.58 1009.37 1009.68
1021.10 1020.80 1020.48 1020.14 1019.78 1019.41 1019.00 1018.56 1018.12 1017.66 1017.18 1016.65 1016.04 1015.34 1014.52 1013.65 1012.84 1011.89 1010.93 1009.75 1010.07 1009.72 1009.01 1008.14 1007.72 1006.94 1005.45 1004.53 1003.78 1003.54 1003.29 1003.72 1004.03 1004.81 1005.56 1005.86 1006.71 1006.99 1007.31 1007.67 1007.78 1008.19 1009.06 1009.70 1009.57 1009.30 1009.79
1021.02 1020.75 1020.44 1020.09 1019.75 1019.40 1019.00 1018.57 1018.11 1017.59 1017.09 1016.54 1015.84 1015.13 1014.36 1013.35 1012.49 1011.59 1011.40 1011.08 1011.42 1011.38 1009.82 1007.32 1006.94 1006.44 1005.31 1004.82 1004.51 1003.36 1002.89 1003.41 1004.04 1004.94 1005.53 1006.32 1006.40 1006.54 1006.81 1007.41 1007.62 1008.04 1008.76 1009.15 1009.39 1009.39 1009.89
1021.00 1020.72 1020.40 1020.09 1019.73 1019.32 1018.89 1018.48 1018.00 1017.47 1016.98 1016.45 1015.76 1014.93 1014.16 1013.11 1012.20 1011.76 1012.09 1011.35 1011.22 1010.94 1010.54 1007.11 1006.11 1005.40 1004.58 1004.52 1004.18 1003.46 1003.15 1003.14 1003.74 1004.78 1005.30 1005.72 1005.59 1005.66 1006.45 1007.14 1007.40 1007.97 1008.42 1009.11 1009.29 1009.95 1010.54
1020.98 1020.72 1020.38 1020.04 1019.67 1019.26 1018.82 1018.39 1017.91 1017.32 1016.79 1016.28 1015.62 1014.85 1014.22 1013.12 1012.30 1013.00 1011.85 1011.08 1011.09 1011.05 1010.13 1006.99 1005.44 1003.82 1003.90 1003.77 1003.35 1002.49 1002.50 1002.64 1003.34 1004.21 1005.17 1005.29 1004.80 1005.31 1006.07 1006.71 1006.88 1007.78 1007.90 1008.74 1009.61 1010.37 1011.52
1020.95 1020.67 1020.31 1019.94 1019.54 1019.15 1018.71 1018.24 1017.73 1017.17 1016.59 1016.00 1015.38 1014.70 1014.42 1014.16 1013.89 1013.12 1011.41 1011.08 1010.70 1010.85 1009.22 1006.02 1004.45 1003.09 1003.26 1003.32 1002.40 1002.07 1001.89 1002.17 1003.23 1004.02 1004.74 1004.74 1004.69 1005.30 1005.95 1005.99 1006.48 1007.87 1008.02 1009.24 1010.44 1011.41 1012.24
1020.83 1020.56 1020.25 1019.86 1019.46 1019.04 1018.58 1018.06 1017.51 1016.96 1016.35 1015.67 1014.93 1014.40 1014.24 1014.08 1013.99 1011.62 1011.07 1010.88 1010.60 1010.55 1008.22 1005.46 1004.00 1003.44 1003.56 1003.00 1002.30 1002.14 1002.08 1002.22 1002.88 1003.93 1004.37 1004.35 1004.20 1004.46 1005.20 1005.84 1006.42 1007.88 1008.73 1010.02 1011.28 1012.19 1013.22
1020.75 1020.45 1020.19 1019.84 1019.46 1018.98 1018.46 1017.93 1017.34 1016.72 1016.08 1015.23 1014.31 1013.59 1013.99 1013.63 1012.32 1011.28 1011.13 1010.69 1011.06 1009.88 1007.32 1006.24 1005.03 1004.18 1003.89 1003.31 1002.66 1002.24 1002.51 1003.00 1003.33 1004.35 1005.04 1004.85 1004.35 1004.53 1004.97 1006.47 1007.22 1007.77 1009.18 1011.32 1012.72 1013.26 1013.47
1020.69 1020.43 1020.14 1019.78 1019.38 1018.91 1018.37 1017.82 1017.16 1016.48 1015.75 1014.63 1013.62 1012.72 1012.53 1012.11 1011.58 1011.40 1011.32 1011.06 1010.94 1009.02 1007.82 1006.58 1005.73 1004.98 1004.49 1003.67 1003.16 1002.83 1002.95 1003.61 1003.70 1004.04 1005.32 1005.26 1004.87 1004.38 1004.49 1005.52 1006.73 1008.21 1009.07 1010.74 1012.45 1013.82 1013.34
1020.64 1020.41 1020.10 1019.74 1019.34 1018.88 1018.36 1017.79 1017.11 1016.33 1015.47 1014.23 1013.03 1012.51 1012.45 1011.43 1011.56 1011.85 1011.71 1011.50 1010.04 1008.98 1007.84 1007.05 1006.29 1005.66 1005.04 1004.21 1003.77 1003.38 1003.59 1003.73 1003.57 1003.73 1004.41 1005.07 1004.68 1003.95 1004.29 1004.88 1005.68 1007.97 1009.32 1010.11 1011.99 1013.51 1013.03
1020.60 1020.35 1020.02 1019.65 1019.23 1018.78 1018.27 1017.70 1017.06 1016.29 1015.27 1014.17 1013.76 1013.23 1012.10 1011.31 1011.48 1011.71 1011.77 1011.16 1009.99 1008.72 1007.71 1007.16 1006.84 1006.46 1005.93 1005.36 1004.61 1003.93 1003.96 1003.30 1003.33 1003.34 1002.97 1004.44 1004.71 1004.29 1004.83 1004.51 1006.02 1006.56 1008.35 1009.88 1010.97 1012.54 1012.71
1020.59 1020.28 1019.92 1019.52 1019.13 1018.72 1018.22 1017.67 1017.08 1016.37 1015.22 1014.07 1013.92 1013.25 1012.01 1011.54 1011.78 1011.89 1012.05 1011.17 1009.66 1008.39 1007.80 1007.26 1007.07 1006.71 1006.47 1006.06 1005.37 1004.68 1004.03 1003.25 1002.58 1003.26 1003.34 1004.26 1004.76 1004.96 1004.88 1004.94 1005.75 1007.15 1008.01 1009.31 1010.38 1011.27 1011.66
1020.58 1020.21 1019.78 1019.43 1019.03 1018.58 1018.13 1017.65 1017.13 1016.54 1015.63 1014.77 1015.05 1013.89 1012.16 1011.90 1012.34 1012.86 1012.09 1010.58 1009.10 1008.32 1007.73 1007.37 1007.08 1006.96 1006.66 1006.26 1005.86 1005.26 1004.40 1003.41 1002.53 1002.64 1003.73 1004.04 1004.82 1005.25 1005.03 1004.85 1005.11 1005.71 1006.86 1008.66 1009.21 1011.06 1010.92
1020.50 1020.18 1019.78 1019.43 1019.00 1018.54 1018.09 1017.68 1017.21 1016.77 1016.46 1016.58 1016.44 1015.08 1012.30 1012.13 1012.76 1012.87 1011.73 1010.35 1009.20 1008.47 1007.82 1007.64 1007.46 1007.12 1006.92 1006.80 1006.56 1005.86 1004.70 1003.40 1003.02 1003.15 1002.88 1003.92 1004.89 1005.44 1005.34 1005.19 1005.33 1005.54 1006.09 1006.80 1007.46 1008.60 1009.62
1020.30 1020.02 1019.74 1019.40 1019.00 1018.56 1018.13 1017.75 1017.34 1016.93 1016.64 1016.73 1016.86 1015.78 1013.59 1012.87 1012.94 1012.56 1011.72 1010.44 1009.32 1008.26 1007.83 1007.56 1007.43 1007.33 1007.35 1007.25 1006.92 1006.38 1005.30 1003.94 1003.44 1003.32 1003.02 1002.95 1004.92 1005.08 1004.99 1004.44 1004.48 1004.82 1005.08 1005.90 1006.36 1007.44 1008.63
1020.20 1020.01 1019.70 1019.37 1019.01 1018.61 1018.22 1017.85 1017.51 1017.01 1016.65 1016.92 1017.22 1016.37 1015.24 1014.03 1013.29 1012.66 1011.85 1010.70 1009.49 1008.66 1008.02 1007.59 1007.64 1007.50 1007.46 1007.65 1007.18 1006.69 1005.69 1005.10 1003.79 1003.32 1003.47 1003.60 1004.55 1004.77 1004.30 1003.88 1004.04 1003.89 1003.98 1004.42 1005.31 1005.45 1006.17
1020.26 1019.98 1019.64 1019.26 1018.91 1018.55 1018.21 1017.84 1017.58 1017.12 1016.86 1017.17 1017.46 1017.26 1016.05 1014.88 1013.58 1012.70 1011.62 1010.54 1009.61 1008.97 1008.37 1007.88 1007.61 1007.35 1007.28 1007.54 1007.21 1006.78 1006.31 1005.63 1005.00 1004.50 1004.17 1003.88 1004.62 1004.80 1004.66 1003.92 1003.71 1003.46 1003.28 1003.77 1004.33 1005.05 1004.99
1020.11 1019.86 1019.56 1019.18 1018.85 1018.47 1018.13 1017.84 1017.50 1017.27 1017.17 1017.59 1017.72 1017.23 1016.86 1015.11 1013.86 1012.80 1011.30 1010.13 1009.20 1008.84 1008.17 1007.43 1007.22 1007.07 1007.10 1007.03 1006.70 1006.12 1005.98 1005.98 1005.71 1005.97 1006.01 1005.73 1004.62 1005.52 1005.22 1003.91 1003.81 1003.14 1002.06 1002.58 1003.37 1003.73 1004.14
1019.90 1019.63 1019.34 1019.06 1018.75 1018.33 1018.00 1017.68 1017.40 1017.26 1017.23 1017.60 1017.71 1017.55 1017.11 1015.41 1014.09 1012.68 1011.20 1010.49 1009.59 1009.11 1008.68 1007.63 1007.17 1007.20 1006.76 1006.45 1005.96 1005.53 1005.49 1005.44 1005.32 1005.01 1005.67 1005.65 1005.27 1004.89 1005.45 1004.39 1003.52 1001.61 1000.48 1000.87 1001.47 1002.42 1003.36
1019.72 1019.43 1019.17 1018.87 1018.57 1018.16 1017.75 1017.45 1017.20 1017.01 1017.07 1017.25 1017.36 1017.47 1017.22 1015.53 1013.85 1012.79 1011.53 1010.48 1009.73 1009.23 1008.63 1007.81 1007.09 1006.55 1006.58 1006.80 1006.85 1005.96 1005.24 1004.89 1003.86 1003.64 1004.45 1004.91 1005.41 1005.31 1005.28 1004.76 1003.19 1001.05 1000.48 1000.50 1001.14 1001.69 1002.29
1019.41 1019.13 1018.85 1018.54 1018.22 1017.88 1017.40 1017.07 1016.81 1016.75 1016.79 1016.82 1016.87 1016.94 1016.99 1016.09 1013.50 1012.73 1011.98 1011.09 1010.46 1009.60 1008.79 1007.63 1006.95 1006.71 1006.94 1007.13 1007.41 1006.29 1004.88 1003.60 1003.31 1003.35 1003.38 1004.29 1004.53 1004.50 1005.05 1004.20 1002.72 1000.59 998.91 998.76 999.58 1001.03 1001.59
1019.24 1018.86 1018.59 1018.32 1017.96 1017.53 1017.03 1016.70 1016.43 1016.33 1016.40 1016.64 1016.44 1016.37 1016.49 1015.70 1013.43 1012.80 1012.01 1011.17 1010.47 1010.13 1009.69 1008.63 1008.03 1007.40 1006.84 1007.27 1007.38 1005.95 1004.16 1002.38 1002.41 1002.47 1003.41 1004.37 1004.48 1004.05 1003.64 1002.53 1001.00 999.04 998.24 998.83 999.74 1000.18 1000.58
1019.14 1018.74 1018.34 1017.96 1017.58 1017.20 1016.77 1016.32 1016.07 1015.88 1015.86 1016.22 1015.80 1015.70 1015.98 1015.17 1013.26 1012.50 1011.73 1011.04 1010.75 1010.48 1010.10 1009.26 1008.96 1008.10 1007.72 1007.66 1006.94 1004.93 1003.66 1001.84 1001.20 1000.46 1000.77 1001.66 1002.55 1002.90 1002.35 1001.08 999.79 997.81 998.44 998.23 998.10 998.42 998.97
1018.93 1018.55 1018.14 1017.65 1017.27 1016.70 1016.32 1015.94 1015.58 1015.46 1015.44 1015.62 1015.65 1014.95 1015.04 1015.33 1013.25 1012.08 1011.43 1010.56 1009.87 1009.63 1009.81 1009.79 1009.32 1008.68 1008.14 1007.79 1007.18 1005.72 1003.74 1002.21 1000.95 1000.59 999.79 999.96 999.37 1000.13 1000.14 999.05 997.59 996.64 996.06 995.90 996.26 996.97 998.68
Wind_Speed
13 14 14 14 15 16 16 16 17 18 19 20 20 20 20 21 22 22 22 23 23 23 22 21 20 17 5 2 9 5 10 14 12 3 5 4 2 4 4 1 2 3 3 3 10 11 10
12 14 14 16 16 16 15 16 17 18 19 19 20 20 20 22 23 24 23 22 23 24 22 20 17 13 2 3 4 2 8 10 7 5 6 4 1 2 5 4 3 2 7 10 12 10 8
12 14 14 15 16 15 15 16 17 18 19 20 21 21 22 22 24 25 24 23 25 25 22 18 11 3 2 12 2 4 6 3 4 5 5 5 2 6 3 2 4 5 15 11 6 5 6
12 13 14 15 17 16 17 17 18 19 19 20 22 22 23 24 25 25 25 26 25 25 18 10 4 2 8 3 2 2 0 2 2 5 3 8 4 6 3 4 6 5 6 5 2 4 4
13 14 12 15 16 16 17 18 18 19 19 20 21 23 24 24 25 26 27 27 25 8 2 8 3 2 8 2 3 7 8 5 2 3 3 7 5 5 3 5 5 6 3 4 3 1 5
13 14 14 15 15 16 17 18 19 19 19 20 20 22 23 24 26 26 28 24 7 2 1 3 2 2 4 2 4 3 4 5 5 6 0 2 4 4 4 3 5 6 5 1 5 5 3
12 13 14 15 16 16 17 18 19 20 20 20 21 22 24 25 26 26 15 4 6 4 3 7 4 4 4 8 3 4 5 5 4 5 5 1 4 6 10 5 1 9 8 5 2 4 5
12 13 15 15 16 16 17 18 19 20 21 21 22 23 24 26 26 25 2 5 7 2 9 6 9 8 6 1 3 4 6 6 5 5 5 5 7 7 5 7 5 6 7 6 2 6 4
13 14 14 14 15 17 17 18 18 19 20 20 22 23 24 27 29 4 3 5 3 2 2 8 6 5 5 8 6 7 7 6 5 5 5 7 6 9 8 6 8 3 7 5 6 7 7
12 12 13 14 15 16 17 17 18 19 20 20 21 22 22 30 4 5 4 2 5 3 5 7 4 9 5 7 5 9 6 6 1 9 8 4 4 6 10 6 4 4 6 6 12 5 4
11 12 13 13 14 15 16 17 18 19 20 21 21 21 17 11 5 3 1 6 6 2 3 2 3 1 1 8 4 7 4 5 9 6 7 8 3 6 4 6 7 2 12 8 5 7 5
11 12 13 14 15 16 16 17 18 19 20 22 22 20 19 1 2 8 7 8 3 7 6 5 3 4 3 2 2 4 4 3 5 5 3 6 2 4 4 6 6 11 8 9 6 4 3
11 11 13 14 15 16 16 17 18 19 20 22 24 24 11 3 5 3 6 3 6 4 5 5 2 3 2 5 3 4 7 6 7 7 3 2 3 3 8 9 6 4 7 4 4 3 5
10 12 13 13 15 16 17 18 19 20 21 24 26 22 2 5 3 4 3 6 4 3 4 4 3 2 6 3 4 2 8 6 1 7 4 6 5 6 6 8 10 3 5 7 7 5 4
10 12 13 14 15 16 17 18 20 21 23 28 21 3 2 4 6 1 5 3 8 6 2 5 4 1 4 5 4 3 6 10 9 7 8 6 6 1 1 4 9 5 4 4 9 3 3
10 12 13 14 14 15 17 18 20 21 25 25 5 4 4 2 6 3 6 6 4 3 0 1 2 1 2 5 1 6 7 6 7 8 5 7 2 2 2 6 7 7 9 3 4 5 2
12 13 14 14 15 16 17 18 19 20 25 18 3 5 4 3 2 5 5 8 5 6 4 2 2 2 1 3 1 2 6 3 5 6 5 6 4 5 5 5 8 2 1 3 6 4 7
12 12 12 13 15 16 16 17 18 18 22 9 4 3 3 3 4 2 4 6 3 3 2 0 1 3 4 2 1 2 5 5 2 10 10 6 6 4 8 1 4 4 8 6 7 5 2
12 12 12 13 14 15 15 14 15 15 13 4 3 4 4 4 3 2 4 5 2 3 4 4 3 4 1 1 0 2 2 4 5 7 11 8 1 2 8 7 3 5 5 4 5 4 5
11 11 12 13 13 14 15 13 13 13 13 3 3 4 4 3 1 2 2 5 3 4 3 4 4 1 2 1 4 4 3 4 8 3 3 8 5 9 9 8 5 3 6 6 3 5 7
11 12 13 13 13 13 14 13 12 12 9 2 2 3 4 2 2 2 2 3 3 4 3 6 3 6 7 6 4 6 4 6 6 6 5 8 7 6 8 6 5 6 9 11 8 7 8
13 13 13 14 14 13 13 12 11 11 3 4 2 3 5 4 4 3 5 6 9 5 5 4 5 7 6 6 5 3 1 1 5 6 2 1 4 5 8 6 8 7 5 3 4 3 5
13 14 14 15 13 14 13 12 10 8 4 2 3 2 1 4 4 2 5 6 6 4 6 8 9 6 3 6 8 15 10 7 8 3 6 4 8 6 7 4 5 5 9 8 5 5 8
14 14 15 14 14 14 14 11 10 7 3 2 1 1 1 6 3 4 5 5 8 4 4 7 4 4 5 3 7 4 6 10 12 15 10 5 3 4 4 3 4 12 6 11 15 5 5
14 14 15 16 15 16 15 13 11 5 1 2 2 2 2 5 4 10 12 5 7 4 6 7 10 7 3 3 3 5 3 2 10 14 14 17 5 3 8 5 5 5 4 10 11 11 10
14 15 16 16 16 16 16 14 12 9 3 2 2 2 2 3 6 7 5 6 4 3 5 4 4 3 4 5 4 6 7 9 6 3 4 8 8 4 5 8 13 10 7 5 6 5 9
15 15 17 17 18 18 16 16 14 10 6 3 3 5 2 3 8 6 5 3 2 2 3 4 6 2 3 4 6 5 7 6 7 12 9 6 3 15 3 5 7 8 6 9 10 12 15
16 16 16 16 17 17 16 17 12 11 6 4 3 6 3 3 10 10 8 6 1 1 1 4 4 1 3 2 5 6 5 8 3 7 12 10 9 6 3 5 6 7 8 14 11 4 20
16 15 16 14 15 15 15 16 12 6 5 6 3 2 5 3 8 8 14 15 12 15 4 2 4 2 3 2 3 5 4 1 5 5 1 6 9 9 11 9 6 14 12 8 8 12 18
Wind_Direction
9 8 1 357 353 350 349 349 350 348 345 343 342 341 338 336 333 332 327 320 314 314 318 317 318 327 350 305 258 4 127 119 130 105 164 146 132 137 104 309 80 64 360 50 106 115 120
4 2 3 359 354 350 349 348 346 346 345 342 340 338 336 333 331 329 323 316 311 309 313 311 313 322 338 261 293 95 125 135 142 158 160 188 202 88 86 42 9 52 72 106 104 108 115
4 360 359 0 357 357 350 346 346 342 340 339 337 336 334 331 328 325 320 312 310 307 307 300 295 272 65 242 89 96 130 171 172 188 125 200 240 47 150 65 342 11 83 72 51 108 93
358 355 354 353 355 351 352 349 345 342 339 338 337 337 335 330 326 322 316 312 310 305 300 278 222 217 245 255 24 336 190 248 256 257 357 307 167 107 91 100 30 47 50 77 302 109 141
349 347 358 357 355 352 350 348 346 343 339 338 336 334 332 328 325 321 316 312 308 306 47 128 119 134 263 168 216 228 164 219 143 10 331 294 40 96 68 83 63 354 138 103 115 282 117
354 355 354 351 351 350 349 348 346 344 341 339 336 332 330 328 325 322 321 309 280 302 135 219 258 40 264 157 281 149 186 173 160 118 220 167 55 87 55 88 203 163 125 105 164 203 145
349 347 344 344 341 346 344 343 343 342 341 340 336 333 330 327 326 324 335 7 14 349 20 205 199 262 273 297 255 187 179 178 101 79 154 178 85 228 197 162 220 136 126 153 204 188 104
337 338 337 339 344 343 341 341 339 338 339 338 335 333 332 328 325 322 291 71 97 207 307 246 247 273 267 73 317 275 134 127 156 166 117 49 225 217 132 158 141 118 140 185 119 145 103
343 344 342 341 340 341 340 339 337 335 336 336 334 333 335 330 322 9 325 126 51 42 189 292 198 205 217 144 213 243 162 145 147 131 165 160 214 147 139 171 172 165 150 176 141 113 48
340 340 339 342 340 337 335 335 335 334 333 333 332 331 339 335 49 332 286 42 328 225 53 275 249 264 155 152 247 199 204 138 157 173 149 223 254 157 144 186 137 150 195 123 131 93 151
338 339 339 336 333 335 332 331 330 331 330 331 329 326 336 336 286 309 46 330 310 112 17 237 213 311 81 167 169 213 169 54 155 152 117 238 175 142 156 216 159 95 99 104 89 84 92
325 330 335 335 338 334 331 330 329 329 328 327 321 319 329 165 273 245 329 314 104 43 256 346 141 161 147 245 238 111 129 73 141 119 33 191 225 166 118 30 114 136 84 57 55 91 40
321 330 332 333 332 330 329 330 330 329 328 323 316 312 309 175 234 348 321 31 48 153 312 328 331 11 182 193 231 162 143 155 148 112 140 349 265 59 115 76 2 106 81 24 15 20 216
332 334 334 332 331 330 330 332 332 330 330 322 320 313 217 212 265 338 10 56 183 243 260 304 345 295 183 158 229 116 121 151 159 107 116 148 302 183 179 155 167 144 130 149 178 182 204
334 335 334 331 328 329 331 333 333 333 332 325 323 335 293 269 196 342 78 102 208 207 253 338 317 129 193 344 185 140 161 180 173 172 133 132 258 259 129 128 139 194 215 151 110 13 81
342 338 336 330 330 331 334 337 338 338 333 331 330 340 292 27 152 88 81 227 218 217 353 24 92 10 102 339 167 150 162 201 177 193 137 197 146 74 189 96 34 130 154 73 10 126 150
346 339 334 337 339 337 338 341 343 344 338 336 14 24 319 76 67 50 165 226 230 245 236 109 162 45 86 63 66 243 198 260 182 168 113 138 95 293 112 207 159 118 112 58 115 115 143
342 335 335 341 339 340 342 344 346 350 347 28 347 15 322 32 58 15 162 203 206 208 319 117 164 230 225 252 222 270 224 238 167 145 152 201 141 199 211 226 205 138 164 183 122 210 56
336 333 347 344 338 340 342 345 347 351 16 341 7 282 314 73 152 274 270 272 206 188 192 159 237 201 153 127 114 264 269 286 11 182 159 179 250 68 351 357 123 184 187 141 116 99 192
338 349 342 337 335 337 340 343 343 346 356 88 6 345 325 67 150 193 230 244 236 224 225 180 200 142 70 299 198 278 277 296 8 318 351 131 138 160 189 196 161 189 173 184 123 120 165
337 337 333 332 333 334 335 339 339 345 6 67 42 279 322 304 285 260 296 291 190 196 221 177 172 210 172 212 209 225 228 297 293 278 210 140 164 168 225 198 182 219 188 177 198 163 148
332 328 327 327 329 331 330 329 331 347 45 67 53 353 346 289 297 236 193 229 232 241 200 249 208 237 204 192 209 335 282 177 262 353 143 255 196 178 229 209 199 224 187 78 73 168 99
330 327 321 317 324 327 327 325 328 352 61 62 311 328 268 282 301 263 220 215 237 114 256 220 211 234 203 233 230 250 225 242 261 24 336 303 134 116 241 216 126 333 231 184 171 174 150
331 331 328 325 319 319 320 319 320 330 140 157 232 133 278 266 253 246 301 313 277 283 261 303 235 127 229 10 318 282 233 228 237 243 173 260 175 133 184 64 175 233 234 207 203 178 155
328 327 321 316 315 313 312 312 304 298 313 182 174 160 246 270 283 296 283 308 305 283 234 222 243 210 78 42 330 289 307 249 232 220 192 197 170 130 147 175 269 289 189 148 159 238 177
323 326 320 316 314 314 309 308 312 302 262 187 209 172 196 272 241 253 312 305 287 309 310 258 330 339 166 148 168 231 202 206 195 128 169 163 233 162 141 163 211 236 224 170 92 236 171
329 328 326 324 322 318 312 312 305 302 242 202 230 192 197 257 268 260 229 270 289 355 264 295 326 352 121 140 192 207 242 193 165 160 154 149 152 209 172 161 264 240 200 120 128 228 161
325 327 324 319 316 315 313 307 312 302 257 194 254 184 205 246 275 257 246 244 201 161 255 316 315 330 46 185 188 224 205 223 156 176 166 148 144 177 115 128 234 167 96 154 198 173 160
323 326 324 324 321 323 309 302 302 306 268 194 256 216 194 225 265 310 274 264 237 229 171 261 296 271 233 26 352 312 264 199 173 202 66 164 174 174 179 207 239 186 174 201 162 158 177